Location: San Vito
(41.8833°N, 12.9833°E)
Time: 17:01:37
(UTC+00:00)

SJ 16-02 - Pass Details

Date: 17 November 2019
Orbit: 607 x 616 km, 75.0° (Epoch: 05 December)

Event Time Altitude Azimuth Distance (km) Brightness Sun altitude
Exits shadow 03:37:49 54° 41° (NE) 745 1.8 -26.3°
Drops below altitude 10° 03:41:18 10° 22° (NNE) 1,966 4.1 -25.6°
Sets 03:43:33 0° 21° (NNE) 2,873 5.0 -25.2°
